Regional Weather Roundup
Issued by NWS State College, PA

Home | Current Version | Previous Version | Graphics & Text | Print | Product List | Glossary Off
Versions: 1 2 3 4 5 6 7 8 9 10 11 12 13 14 15 16 17 18 19 20 21 22 23 24 25 26 27 28 29 30 31 32 33 34 35 36 37 38 39 40 41 42 43 44 45 46 47 48 49 50

000
ASUS41 KCTP 270610
RWRCTP

REGIONAL WEATHER ROUNDUP
NATIONAL WEATHER SERVICE STATE COLLEGE PA
200 AM EDT MON APR 27 2015

Note: "fair" indicates few or no clouds below 12,000 feet with no
significant weather and/or obstructions to visibility.

* = STATION THAT DOES NOT REPORT PRECIPITATION /E.G. RAIN...SNOW...ETC/
    THUNDER OR FOG.

PAZ002>004-007>009-013>016-020>023-029>032-270700-
WESTERN PENNSYLVANIA

CITY           SKY/WX    TMP DP  RH WIND       PRES   REMARKS
ERIE           CLOUDY    41  34  76 CALM      29.84F
MEADVILLE      PTCLDY    37  31  78 CALM      29.82F
FRANKLIN*      CLEAR     39  28  65 NW5       29.82F
NEW CASTLE     MOCLDY    39  32  76 CALM      29.85F
BEAVER COUNTY  NOT AVBL
BUTLER*        CLOUDY    43  30  61 NW6       29.83F
PITTSBURGH INT PTCLDY    42  31  64 NW7       29.82F
PITTSBURGH     CLOUDY    44  28  53 NW8       29.80F
INDIANA*       CLOUDY    41  32  70 CALM      29.82F
LATROBE        PTCLDY    41  32  70 CALM      29.82F
WASHINGTON CO* CLEAR     34  27  75 CALM      29.84F
$$

PAZ004>006-010>012-017>019-024>028-033>037-041-042-045-046-049>053-270700-
CENTRAL PENNSYLVANIA

CITY           SKY/WX    TMP DP  RH WIND       PRES   REMARKS
BRADFORD       CLOUDY    39  30  70 NW8       29.77S
DUBOIS         CLOUDY    44  31  60 NW7       29.77S
CLEARFIELD     CLOUDY    44  30  57 N5        29.77S
JOHNSTOWN      MOCLDY    39  28  64 NW7       29.76F
ALTOONA        CLOUDY    41  28  60 W3        29.77F
STATE COLLEGE  CLOUDY    45  29  54 CALM      29.76S
WILLIAMSPORT   CLOUDY    48  32  53 W5        29.75F
SELINSGROVE    CLOUDY    41  36  82 CALM      29.76F
FT INDIANTOWN  PTCLDY    47  31  53 VRB1      29.74F
CAPITAL CITY   PTCLDY    40  30  67 W3        29.76S
HARRISBURG     PTCLDY    43  31  62 NW3       29.75S
YORK           CLEAR     34  30  85 CALM      29.75F
$$

PAZ038>040-043-044-047-048-054-055-060>062-067>071-270700-
EASTERN PENNSYLVANIA

CITY           SKY/WX    TMP DP  RH WIND       PRES   REMARKS
SCRANTON       CLOUDY    45  30  55 NW6       29.72F
MOUNT POCONO   CLOUDY    40  28  62 NW7       29.68F
ALLENTOWN      PTCLDY    43  28  55 W5        29.73F
QUAKERTOWN*    CLEAR     43  28  56 NW3       29.73F
READING        MOCLDY    41  28  60 NW5       29.74S
LANCASTER      CLEAR     40  30  67 NW6       29.74F
COATESVILLE    CLEAR     43  28  56 NW5       29.74F
POTTSTOWN      CLEAR     42  29  59 NW3       29.75S
BLUE BELL      CLEAR     43  32  65 CALM      29.73S
DOYLESTOWN     CLEAR     42  32  67 W5        29.72S
WILLOW GROVE   NOT AVBL
NORTH PHILA    CLEAR     47  26  44 NW5       29.74S
PHILADELPHIA   CLEAR     52  27  38 NW7       29.74F
$$


USA.gov is the U.S. government's official web portal to all federal, state and local government web resources and services.